Location: Bosdarros
(43.2167°N, 0.3667°W)
Time: 16:15:09
(UTC+00:00)

FALCON 9 DEB - Pass Details

Date: 22 April 2021
Orbit: 364 x 381 km, 53.0° (Epoch: 12 May)

Event Time Altitude Azimuth Distance (km) Brightness Sun altitude
Rises 20:50:16 0° 254° (WSW) 2,195 7.2 -19.5°
Reaches altitude 10° 20:52:23 10° 264° (W) 1,351 6.2 -19.8°
Maximum altitude 20:55:11 35° 333° (NNW) 617 4.4 -20.2°
Enters shadow 20:57:00 18° 31° (NNE) 998 5.0 -20.4°
